OE3PDB-10 Weather Reports


time (UTC)temp
C
wind
direction
speed
KPH
gust
KPH
rain 1hr
cm
rain 24hr
cm
rain mn
cm
humidity
%
barometer
mb
20260506134043 24 247 0.0 0.0 0.00 0.00 0.00 38 1111.0
20260506133043 24 270 0.0 0.0 0.00 0.00 0.00 38 1111.0
20260506132043 24 270 0.0 0.0 0.00 0.00 0.00 38 1111.0
20260506131043 23 247 0.0 0.0 0.00 0.00 0.00 39 1111.0
20260506130043 23 270 0.0 0.0 0.00 0.00 0.00 40 1111.0
20260506125043 22 270 0.0 0.0 0.00 0.00 0.00 42 1111.0
20260506124043 21 270 0.0 0.0 0.00 0.00 0.00 43 1111.0
20260506123043 21 247 0.0 0.0 0.00 0.00 0.00 43 1111.0
20260506122043 21 270 0.0 0.0 0.00 0.00 0.00 44 1111.0
20260506121043 21 270 0.0 0.0 0.00 0.00 0.00 45 1111.0
20260506120043 21 247 0.0 0.0 0.00 0.00 0.00 46 1111.0
20260506115043 21 247 0.0 0.0 0.00 0.00 0.00 46 1111.0
20260506114043 21 247 0.0 0.0 0.00 0.00 0.00 44 1111.0
20260506113043 22 247 0.0 0.0 0.00 0.00 0.00 46 1111.0
20260506112043 21 270 0.0 0.0 0.00 0.00 0.00 47 1111.0
20260506111043 21 247 0.0 0.0 0.00 0.00 0.00 46 1111.0
20260506110043 21 270 0.0 0.0 0.00 0.00 0.00 47 1111.0
20260506105043 21 270 0.0 0.0 0.00 0.00 0.00 47 1111.0
20260506104043 21 270 0.0 0.0 0.00 0.00 0.00 47 1111.0
20260506103043 21 270 0.0 0.0 0.00 0.00 0.00 47 1111.0
20260506102043 21 270 0.0 0.0 0.00 0.00 0.00 48 1111.0
20260506101043 22 247 0.0 0.0 0.00 0.00 0.00 46 1111.0
20260506100043 22 247 0.0 0.0 0.00 0.00 0.00 45 1111.0
20260506095043 22 247 0.0 0.0 0.00 0.00 0.00 45 1111.0
20260506094043 21 270 0.0 0.0 0.00 0.00 0.00 45 1111.0
20260506093043 22 247 0.0 0.0 0.00 0.00 0.00 45 1111.0
20260506092043 22 270 0.0 0.0 0.00 0.00 0.00 44 1111.0
20260506091043 22 225 0.0 0.0 0.00 0.00 0.00 43 1111.0
20260506090043 22 247 0.0 0.0 0.00 0.00 0.00 43 1111.0
20260506085043 23 225 0.0 0.0 0.00 0.00 0.00 42 1111.0
20260506084043 24 270 0.0 0.0 0.00 0.00 0.00 40 1111.0
20260506083043 25 247 0.0 0.0 0.00 0.00 0.00 38 1111.0
20260506082043 26 247 0.0 0.0 0.00 0.00 0.00 36 1111.0
20260506081043 28 247 0.0 0.0 0.00 0.00 0.00 36 1111.0
20260506073043 27 67 0.0 0.0 0.00 0.00 0.00 40 1111.0
20260506072043 26 67 0.0 0.0 0.00 0.00 0.00 43 1111.0
20260506071044 22 67 0.0 0.0 0.00 0.00 0.00 51 1111.0
20260506062044 16 67 0.0 0.0 0.00 0.00 0.00 65 1111.0
20260506061044 15 135 0.0 0.0 0.00 0.00 0.00 66 1111.0
20260506051044 14 67 0.0 0.0 0.00 0.00 0.00 72 1111.0
20260506045044 13 67 0.0 0.0 0.00 0.00 0.00 73 1111.0
20260506044044 13 67 0.0 0.0 0.00 0.00 0.00 74 1111.0
20260506043044 13 135 0.0 0.0 0.00 0.00 0.00 74 1111.0
20260506042044 13 135 0.0 0.0 0.00 0.00 0.00 75 1111.0
20260506041044 12 112 0.0 0.0 0.00 0.00 0.00 75 1111.0
20260506040044 12 67 0.0 0.0 0.00 0.00 0.00 75 1111.0
20260506035044 12 0 0.0 0.0 0.00 0.00 0.00 75 1111.0
20260506034044 12 337 0.0 0.0 0.00 0.00 0.00 75 1111.0
20260506033044 13 337 0.0 0.0 0.00 0.00 0.00 75 1111.0
20260506032044 13 315 0.0 0.0 0.00 0.00 0.00 75 1111.0
20260506031044 13 45 0.0 0.0 0.00 0.00 0.00 74 1111.0
20260506030044 13 247 0.0 0.0 0.00 0.00 0.00 74 1111.0
20260506025044 13 45 0.0 0.0 0.00 0.00 0.00 75 1111.0
20260506024044 13 157 0.0 0.0 0.00 0.00 0.00 75 1111.0
20260506023044 13 112 0.0 0.0 0.00 0.00 0.00 75 1111.0
20260506022044 13 135 0.0 0.0 0.00 0.00 0.00 75 1111.0
20260506021044 13 135 0.0 0.0 0.00 0.00 0.00 74 1111.0
20260506020044 13 22 0.0 0.0 0.00 0.00 0.00 74 1111.0
20260506015044 13 90 0.0 0.0 0.00 0.00 0.00 74 1111.0
20260506014044 13 45 0.0 0.0 0.00 0.00 0.00 74 1111.0
20260506013044 13 315 0.0 0.0 0.00 0.00 0.00 73 1111.0
20260506012044 14 67 0.0 0.0 0.00 0.00 0.00 72 1111.0
20260506011044 14 135 0.0 0.0 0.00 0.00 0.00 71 1111.0
20260506010044 14 202 0.0 0.0 0.00 0.00 0.00 71 1111.0
20260506005044 15 112 0.0 0.0 0.00 0.00 0.00 69 1111.0
20260506004044 15 337 0.0 0.0 0.00 0.00 0.00 69 1111.0
20260506003044 15 22 0.0 0.0 0.00 0.00 0.00 68 1111.0
20260506002044 15 270 0.0 0.0 0.00 0.00 0.00 67 1111.0
20260506001044 15 315 0.0 0.0 0.00 0.00 0.00 66 1111.0
20260505235043 15 67 0.0 0.0 0.00 0.00 0.00 65 1111.0
20260505234043 15 45 0.0 0.0 0.00 0.00 0.00 65 1111.0
20260505233043 15 22 0.0 0.0 0.00 0.00 0.00 65 1111.0
20260505232043 15 22 0.0 0.0 0.00 0.00 0.00 65 1111.0
20260505231043 15 0 0.0 0.0 0.00 0.00 0.00 65 1111.0
20260505230043 15 225 0.0 0.0 0.00 0.00 0.00 65 1111.0
20260505225043 15 315 0.0 0.0 0.00 0.00 0.00 63 1111.0
20260505224043 15 45 0.0 0.0 0.00 0.00 0.00 63 1111.0
20260505223043 15 22 0.0 0.0 0.00 0.00 0.00 63 1111.0
20260505222043 15 45 0.0 0.0 0.00 0.00 0.00 62 1111.0
20260505221043 15 337 0.0 0.0 0.00 0.00 0.00 62 1111.0
20260505220043 15 112 0.0 0.0 0.00 0.00 0.00 61 1111.0
20260505215043 15 112 0.0 0.0 0.00 0.00 0.00 61 1111.0
20260505214043 16 112 0.0 0.0 0.00 0.00 0.00 60 1111.0
20260505213043 16 337 0.0 0.0 0.00 0.00 0.00 59 1111.0
20260505212043 16 270 0.0 0.0 0.00 0.00 0.00 59 1111.0
20260505211043 15 225 0.0 0.0 0.00 0.00 0.00 58 1111.0
20260505210043 15 135 0.0 0.0 0.00 0.00 0.00 59 1111.0
20260505205043 15 270 0.0 0.0 0.00 0.00 0.00 60 1111.0
20260505204043 15 270 0.0 0.0 0.00 0.00 0.00 60 1111.0
20260505203043 15 270 0.0 0.0 0.00 0.00 0.00 60 1111.0
20260505202043 15 247 0.0 0.0 0.00 0.00 0.00 59 1111.0
20260505201044 15 247 0.0 0.0 0.00 0.00 0.00 59 1111.0
20260505200044 15 270 0.0 0.0 0.00 0.00 0.00 58 1111.0
20260505195044 16 247 0.0 0.0 0.00 0.00 0.00 57 1111.0
20260505194044 16 270 0.0 0.0 0.00 0.00 0.00 55 1111.0
20260505193044 16 270 0.0 0.0 0.00 0.00 0.00 55 1111.0
20260505192044 16 247 0.0 0.0 0.00 0.00 0.00 54 1111.0
20260505191044 17 247 0.0 0.0 0.00 0.00 0.00 53 1111.0
20260505190044 17 247 0.0 0.0 0.00 0.00 0.00 52 1111.0
20260505185044 17 247 0.0 0.0 0.00 0.00 0.00 51 1111.0
20260505184044 17 270 0.0 0.0 0.00 0.00 0.00 50 1111.0
20260505183044 18 270 0.0 0.0 0.00 0.00 0.00 49 1111.0
20260505182044 18 270 0.0 0.0 0.00 0.00 0.00 48 1111.0
20260505181044 18 247 0.0 0.0 0.00 0.00 0.00 47 1111.0
20260505180044 19 270 0.0 0.0 0.00 0.00 0.00 46 1111.0
20260505175044 20 247 0.0 0.0 0.00 0.00 0.00 46 1111.0
20260505174044 20 247 0.0 0.0 0.00 0.00 0.00 45 1111.0
20260505173044 20 270 0.0 0.0 0.00 0.00 0.00 44 1111.0
20260505172044 21 270 0.0 0.0 0.00 0.00 0.00 44 1111.0
20260505171044 21 270 0.0 0.0 0.00 0.00 0.00 43 1111.0
20260505170044 21 270 0.0 0.0 0.00 0.00 0.00 42 1111.0
20260505165044 21 270 0.0 0.0 0.00 0.00 0.00 42 1111.0
20260505164044 21 270 0.0 0.0 0.00 0.00 0.00 42 1111.0
20260505163044 22 270 0.0 0.0 0.00 0.00 0.00 41 1111.0
20260505162044 22 270 0.0 0.0 0.00 0.00 0.00 40 1111.0
20260505161044 22 270 0.0 0.0 0.00 0.00 0.00 39 1111.0
20260505153044 23 225 0.0 0.0 0.00 0.00 0.00 35 1111.0
20260505152044 24 202 0.0 0.0 0.00 0.00 0.00 34 1111.0
20260505151044 25 270 0.0 0.0 0.00 0.00 0.00 33 1111.0